Time,TemperatureF,DewpointF,PressureIn,WindDirection,WindDirectionDegrees,WindSpeedMPH,WindSpeedGustMPH,Humidity,HourlyPrecipIn,Conditions,Clouds,dailyrainin,SoftwareType,DateUTC
2013-01-20 00:01:00,38.0,37.0,30.35,NNE,24,2.0,4.0,96,0.00,,,0.00,weatherlink.com 1.10,2013-01-20 08:01:00,
2013-01-20 00:16:00,38.0,37.0,30.36,NNE,32,4.0,7.0,96,0.00,,,0.00,weatherlink.com 1.10,2013-01-20 08:16:00,
2013-01-20 00:31:00,38.4,37.0,30.36,NE,36,6.0,8.0,96,0.00,,,0.00,weatherlink.com 1.10,2013-01-20 08:31:00,
2013-01-20 00:46:00,38.3,37.0,30.36,NNE,16,5.0,9.0,96,0.00,,,0.00,weatherlink.com 1.10,2013-01-20 08:46:00,
2013-01-20 01:01:00,38.4,37.0,30.36,NE,44,4.0,7.0,96,0.00,,,0.00,weatherlink.com 1.10,2013-01-20 09:01:00,
2013-01-20 01:17:00,38.3,37.0,30.36,North,360,6.0,6.0,96,0.00,,,0.00,weatherlink.com 1.10,2013-01-20 09:17:00,
2013-01-20 01:32:00,38.3,37.0,30.36,NNE,27,1.0,6.0,96,0.00,,,0.00,weatherlink.com 1.10,2013-01-20 09:32:00,
2013-01-20 01:47:00,38.4,37.0,30.36,NNE,29,5.0,6.0,96,0.00,,,0.00,weatherlink.com 1.10,2013-01-20 09:47:00,
2013-01-20 02:02:00,38.7,38.0,30.36,NE,37,5.0,7.0,96,0.00,,,0.00,weatherlink.com 1.10,2013-01-20 10:02:00,
2013-01-20 02:17:00,38.6,38.0,30.37,NNE,26,3.0,10.0,96,0.00,,,0.00,weatherlink.com 1.10,2013-01-20 10:17:00,
2013-01-20 02:32:00,38.5,38.0,30.37,NNW,338,3.0,7.0,96,0.00,,,0.00,weatherlink.com 1.10,2013-01-20 10:32:00,
2013-01-20 02:47:00,38.4,37.0,30.37,NNE,29,7.0,9.0,96,0.00,,,0.00,weatherlink.com 1.10,2013-01-20 10:47:00,
2013-01-20 03:02:00,38.0,37.0,30.37,NNE,30,6.0,8.0,97,0.00,,,0.00,weatherlink.com 1.10,2013-01-20 11:02:00,
2013-01-20 03:17:00,37.5,37.0,30.37,North,358,4.0,7.0,97,0.00,,,0.00,weatherlink.com 1.10,2013-01-20 11:17:00,
2013-01-20 03:32:00,37.7,37.0,30.36,NNE,27,4.0,6.0,97,0.00,,,0.00,weatherlink.com 1.10,2013-01-20 11:32:00,
2013-01-20 03:47:00,37.7,37.0,30.36,NE,41,3.0,4.0,97,0.00,,,0.00,weatherlink.com 1.10,2013-01-20 11:47:00,
2013-01-20 04:02:00,37.9,37.0,30.36,NE,41,5.0,5.0,97,0.00,,,0.00,weatherlink.com 1.10,2013-01-20 12:02:00,
2013-01-20 04:17:00,38.1,37.0,30.36,NE,44,0.0,3.0,97,0.00,,,0.00,weatherlink.com 1.10,2013-01-20 12:17:00,
2013-01-20 04:32:00,38.2,38.0,30.36,NE,43,2.0,6.0,97,0.00,,,0.00,weatherlink.com 1.10,2013-01-20 12:32:00,
2013-01-20 04:47:00,38.3,38.0,30.36,NE,54,0.0,4.0,97,0.00,,,0.00,weatherlink.com 1.10,2013-01-20 12:47:00,
2013-01-20 05:02:00,38.5,38.0,30.35,North,6,3.0,4.0,97,0.00,,,0.00,weatherlink.com 1.10,2013-01-20 13:02:00,
2013-01-20 05:17:00,38.8,38.0,30.35,NNW,347,2.0,6.0,96,0.00,,,0.00,weatherlink.com 1.10,2013-01-20 13:17:00,
2013-01-20 05:32:00,38.9,38.0,30.36,NE,51,0.0,3.0,96,0.00,,,0.00,weatherlink.com 1.10,2013-01-20 13:32:00,
2013-01-20 05:47:00,39.0,38.0,30.35,NNE,30,8.0,8.0,96,0.00,,,0.00,weatherlink.com 1.10,2013-01-20 13:47:00,
2013-01-20 06:02:00,38.9,38.0,30.35,NE,47,4.0,7.0,96,0.00,,,0.00,weatherlink.com 1.10,2013-01-20 14:02:00,
2013-01-20 06:17:00,38.9,38.0,30.35,NE,36,3.0,6.0,96,0.00,,,0.00,weatherlink.com 1.10,2013-01-20 14:17:00,
2013-01-20 06:32:00,38.6,38.0,30.35,NW,318,2.0,6.0,96,0.00,,,0.00,weatherlink.com 1.10,2013-01-20 14:32:00,
2013-01-20 06:47:00,38.8,38.0,30.35,NNE,28,4.0,5.0,96,0.00,,,0.00,weatherlink.com 1.10,2013-01-20 14:47:00,
2013-01-20 07:02:00,39.1,38.0,30.35,ENE,57,5.0,5.0,96,0.00,,,0.00,weatherlink.com 1.10,2013-01-20 15:02:00,
2013-01-20 07:17:00,39.2,38.0,30.35,NE,54,5.0,5.0,95,0.00,,,0.00,weatherlink.com 1.10,2013-01-20 15:17:00,
2013-01-20 07:32:00,39.3,38.0,30.35,NNE,28,3.0,3.0,96,0.00,,,0.00,weatherlink.com 1.10,2013-01-20 15:32:00,
2013-01-20 07:47:00,39.5,39.0,30.35,North,354,3.0,5.0,96,0.00,,,0.00,weatherlink.com 1.10,2013-01-20 15:47:00,
2013-01-20 08:02:00,39.6,38.0,30.36,NNE,18,4.0,5.0,95,0.00,,,0.00,weatherlink.com 1.10,2013-01-20 16:02:00,
2013-01-20 08:17:00,39.5,38.0,30.36,NNE,22,3.0,5.0,95,0.00,,,0.00,weatherlink.com 1.10,2013-01-20 16:17:00,
2013-01-20 08:32:00,39.6,38.0,30.36,North,352,1.0,2.0,95,0.00,,,0.00,weatherlink.com 1.10,2013-01-20 16:32:00,
2013-01-20 08:47:00,39.8,39.0,30.36,NW,316,2.0,5.0,95,0.00,,,0.00,weatherlink.com 1.10,2013-01-20 16:47:00,
2013-01-20 09:02:00,40.0,39.0,30.36,NNW,338,1.0,3.0,94,0.00,,,0.00,weatherlink.com 1.10,2013-01-20 17:02:00,
2013-01-20 09:17:00,40.3,39.0,30.36,NNE,13,4.0,7.0,94,0.00,,,0.00,weatherlink.com 1.10,2013-01-20 17:17:00,
2013-01-20 09:31:00,40.3,39.0,30.37,NE,49,3.0,7.0,94,0.00,,,0.00,weatherlink.com 1.10,2013-01-20 17:31:00,
2013-01-20 09:47:00,40.4,39.0,30.37,North,358,1.0,6.0,93,0.00,,,0.00,weatherlink.com 1.10,2013-01-20 17:47:00,
2013-01-20 10:02:00,40.5,39.0,30.36,NW,323,1.0,5.0,93,0.00,,,0.00,weatherlink.com 1.10,2013-01-20 18:02:00,
2013-01-20 10:17:00,40.7,39.0,30.36,North,9,3.0,5.0,93,0.00,,,0.00,weatherlink.com 1.10,2013-01-20 18:17:00,
2013-01-20 10:32:00,40.9,39.0,30.36,NNE,19,2.0,4.0,92,0.00,,,0.00,weatherlink.com 1.10,2013-01-20 18:32:00,
2013-01-20 10:47:00,41.0,39.0,30.36,NNE,20,4.0,7.0,91,0.00,,,0.00,weatherlink.com 1.10,2013-01-20 18:47:00,
2013-01-20 11:02:00,41.2,39.0,30.36,NNE,20,5.0,7.0,92,0.00,,,0.00,weatherlink.com 1.10,2013-01-20 19:02:00,
2013-01-20 11:17:00,41.2,39.0,30.35,NNE,16,3.0,4.0,91,0.00,,,0.00,weatherlink.com 1.10,2013-01-20 19:17:00,
2013-01-20 11:32:00,41.4,39.0,30.35,NW,325,1.0,4.0,91,0.00,,,0.00,weatherlink.com 1.10,2013-01-20 19:32:00,
2013-01-20 11:47:00,41.4,39.0,30.34,NE,35,4.0,6.0,90,0.00,,,0.00,weatherlink.com 1.10,2013-01-20 19:47:00,
2013-01-20 12:02:00,41.5,39.0,30.33,NNE,32,4.0,7.0,91,0.00,,,0.00,weatherlink.com 1.10,2013-01-20 20:02:00,
2013-01-20 12:17:00,41.5,39.0,30.33,NNE,22,2.0,6.0,91,0.00,,,0.00,weatherlink.com 1.10,2013-01-20 20:17:00,
2013-01-20 12:32:00,41.7,39.0,30.32,NNE,30,2.0,7.0,91,0.00,,,0.00,weatherlink.com 1.10,2013-01-20 20:32:00,
2013-01-20 12:47:00,42.0,40.0,30.31,NW,315,0.0,5.0,91,0.00,,,0.00,weatherlink.com 1.10,2013-01-20 20:47:00,
2013-01-20 13:02:00,42.4,40.0,30.31,NE,35,2.0,4.0,90,0.00,,,0.00,weatherlink.com 1.10,2013-01-20 21:02:00,
2013-01-20 13:18:00,42.4,40.0,30.30,NNE,20,1.0,4.0,90,0.00,,,0.00,weatherlink.com 1.10,2013-01-20 21:18:00,
2013-01-20 13:33:00,42.7,40.0,30.30,ESE,113,1.0,7.0,89,0.00,,,0.00,weatherlink.com 1.10,2013-01-20 21:33:00,
2013-01-20 13:48:00,42.9,40.0,30.29,NNE,30,4.0,4.0,88,0.00,,,0.00,weatherlink.com 1.10,2013-01-20 21:48:00,
2013-01-20 14:03:00,43.3,40.0,30.28,North,360,1.0,3.0,87,0.00,,,0.00,weatherlink.com 1.10,2013-01-20 22:03:00,
2013-01-20 14:18:00,43.7,40.0,30.28,ENE,60,1.0,1.0,87,0.00,,,0.00,weatherlink.com 1.10,2013-01-20 22:18:00,
2013-01-20 14:33:00,43.9,40.0,30.28,NNE,27,1.0,2.0,86,0.00,,,0.00,weatherlink.com 1.10,2013-01-20 22:33:00,
2013-01-20 14:48:00,42.9,40.0,30.28,SE,136,2.0,4.0,89,0.00,,,0.00,weatherlink.com 1.10,2013-01-20 22:48:00,
2013-01-20 15:03:00,43.0,40.0,30.28,SE,139,2.0,4.0,90,0.00,,,0.00,weatherlink.com 1.10,2013-01-20 23:03:00,
2013-01-20 15:18:00,42.8,40.0,30.28,SE,141,2.0,5.0,90,0.00,,,0.00,weatherlink.com 1.10,2013-01-20 23:18:00,
2013-01-20 15:33:00,42.7,40.0,30.28,SSE,155,3.0,4.0,90,0.00,,,0.00,weatherlink.com 1.10,2013-01-20 23:33:00,
2013-01-20 15:48:00,42.5,40.0,30.28,SSE,148,3.0,4.0,90,0.00,,,0.00,weatherlink.com 1.10,2013-01-20 23:48:00,
2013-01-20 16:03:00,41.9,40.0,30.27,SW,215,1.0,2.0,91,0.00,,,0.00,weatherlink.com 1.10,2013-01-21 00:03:00,
2013-01-20 16:18:00,41.4,39.0,30.28,SSW,204,0.0,1.0,92,0.00,,,0.00,weatherlink.com 1.10,2013-01-21 00:18:00,
2013-01-20 16:33:00,40.8,39.0,30.27,SW,236,1.0,1.0,93,0.00,,,0.00,weatherlink.com 1.10,2013-01-21 00:33:00,
2013-01-20 16:48:00,40.0,39.0,30.27,SW,236,0.0,1.0,94,0.00,,,0.00,weatherlink.com 1.10,2013-01-21 00:48:00,
2013-01-20 17:03:00,39.3,38.0,30.27,WSW,239,0.0,1.0,95,0.00,,,0.00,weatherlink.com 1.10,2013-01-21 01:03:00,
2013-01-20 17:18:00,38.8,38.0,30.27,WSW,257,0.0,1.0,95,0.00,,,0.00,weatherlink.com 1.10,2013-01-21 01:18:00,
2013-01-20 17:33:00,38.3,37.0,30.26,WSW,255,0.0,1.0,96,0.00,,,0.00,weatherlink.com 1.10,2013-01-21 01:33:00,
2013-01-20 17:48:00,37.7,37.0,30.26,WSW,257,1.0,1.0,96,0.00,,,0.00,weatherlink.com 1.10,2013-01-21 01:48:00,
2013-01-20 18:03:00,37.5,37.0,30.25,WSW,254,1.0,2.0,97,0.00,,,0.00,weatherlink.com 1.10,2013-01-21 02:03:00,
2013-01-20 18:18:00,37.1,36.0,30.25,West,269,0.0,2.0,97,0.00,,,0.00,weatherlink.com 1.10,2013-01-21 02:18:00,
2013-01-20 18:33:00,36.5,36.0,30.25,West,266,1.0,1.0,98,0.00,,,0.00,weatherlink.com 1.10,2013-01-21 02:33:00,
2013-01-20 18:48:00,36.3,36.0,30.25,West,267,0.0,1.0,98,0.00,,,0.00,weatherlink.com 1.10,2013-01-21 02:48:00,
2013-01-20 19:03:00,36.0,36.0,30.25,West,273,0.0,2.0,98,0.00,,,0.00,weatherlink.com 1.10,2013-01-21 03:03:00,
2013-01-20 19:18:00,35.4,35.0,30.25,West,273,0.0,0.0,98,0.00,,,0.00,weatherlink.com 1.10,2013-01-21 03:18:00,
2013-01-20 19:33:00,35.0,35.0,30.25,West,274,1.0,1.0,98,0.00,,,0.00,weatherlink.com 1.10,2013-01-21 03:33:00,
2013-01-20 19:48:00,34.9,35.0,30.25,West,273,1.0,1.0,99,0.00,,,0.00,weatherlink.com 1.10,2013-01-21 03:48:00,
2013-01-20 20:03:00,34.5,34.0,30.25,West,273,0.0,0.0,99,0.00,,,0.00,weatherlink.com 1.10,2013-01-21 04:03:00,
2013-01-20 20:18:00,34.6,34.0,30.25,West,259,2.0,2.0,99,0.00,,,0.00,weatherlink.com 1.10,2013-01-21 04:18:00,
2013-01-20 20:33:00,34.8,35.0,30.25,WSW,258,0.0,2.0,99,0.00,,,0.00,weatherlink.com 1.10,2013-01-21 04:33:00,
2013-01-20 20:48:00,35.3,35.0,30.25,West,259,0.0,1.0,99,0.00,,,0.00,weatherlink.com 1.10,2013-01-21 04:48:00,
2013-01-20 21:03:00,35.6,35.0,30.25,South,169,0.0,1.0,99,0.00,,,0.00,weatherlink.com 1.10,2013-01-21 05:03:00,
2013-01-20 21:18:00,35.8,36.0,30.25,West,259,0.0,1.0,99,0.00,,,0.00,weatherlink.com 1.10,2013-01-21 05:18:00,
2013-01-20 21:33:00,36.5,36.0,30.25,West,266,0.0,1.0,99,0.00,,,0.00,weatherlink.com 1.10,2013-01-21 05:33:00,
2013-01-20 21:48:00,37.2,37.0,30.25,West,266,0.0,1.0,99,0.00,,,0.00,weatherlink.com 1.10,2013-01-21 05:48:00,
2013-01-20 22:03:00,37.6,37.0,30.25,West,264,0.0,1.0,99,0.00,,,0.00,weatherlink.com 1.10,2013-01-21 06:03:00,
2013-01-20 22:18:00,38.0,38.0,30.25,WSW,252,0.0,0.0,99,0.00,,,0.00,weatherlink.com 1.10,2013-01-21 06:18:00,
2013-01-20 22:33:00,38.5,38.0,30.25,WNW,293,0.0,2.0,99,0.00,,,0.00,weatherlink.com 1.10,2013-01-21 06:33:00,
2013-01-20 22:48:00,38.9,39.0,30.25,WNW,291,0.0,1.0,99,0.00,,,0.00,weatherlink.com 1.10,2013-01-21 06:48:00,
2013-01-20 23:03:00,38.9,38.0,30.25,WNW,293,1.0,1.0,98,0.00,,,0.00,weatherlink.com 1.10,2013-01-21 07:03:00,
2013-01-20 23:18:00,39.2,39.0,30.25,West,267,1.0,5.0,98,0.00,,,0.00,weatherlink.com 1.10,2013-01-21 07:18:00,
2013-01-20 23:33:00,39.5,39.0,30.25,NNW,345,2.0,4.0,98,0.00,,,0.00,weatherlink.com 1.10,2013-01-21 07:33:00,
2013-01-20 23:48:00,39.6,39.0,30.25,NNW,332,3.0,9.0,97,0.00,,,0.00,weatherlink.com 1.10,2013-01-21 07:48:00,